Weather History for New Orleans, LA

Change the Weather History Date:

Tuesday, April 30, 2013

  Actual Average Record
Temperature  
Mean Temperature 72 °F -  
Max Temperature 77 °F 81 °F 89 °F (1955)
Min Temperature 66 °F 62 °F 46 °F (1965)
Cooling Degree Days 6    
Growing Degree Days 22 (Base 50)    
Moisture  
Dew Point 66 °F    
Average Humidity 86    
Maximum Humidity 96    
Minimum Humidity 70    
Precipitation  
Precipitation 0.59 in - - ()
Sea Level Pressure  
Sea Level Pressure 29.89 in    
Wind  
Wind Speed 6 mph (ESE)    
Max Wind Speed 16 mph    
Max Gust Speed 32 mph    
Visibility 7 miles    
Events Fog , Rain , Thunderstorm    
Averages and records for this station are not official NWS values.
T = Trace of Precipitation, MM = Missing Value Source: NWS Daily Summary

Daily Weather History Graph

Daily Weather History Graph

Search for Another Location

Airport:

Trip Planner

Search our weather history database for the weather conditions in past years. The results will help you decide how hot, cold, wet, or windy it might be!

Date:

Astronomy

Apr. 30, 2013 Rise Set
Actual Time 6:18 AM CDT 7:37 PM CDT
Civil Twilight 5:53 AM CDT 8:03 PM CDT
Nautical Twilight 5:23 AM CDT 8:33 PM CDT
Astronomical Twilight 4:52 AM CDT 9:04 PM CDT
Moon No Moon Rise 10:51 AM CDT (4/30)
Length of Visible Light 14h 09m
Length of Day
13h 19m
Waning Gibbous, 70% of the Moon is Illuminated
Apr 30
Waning Gibbous
May 2
Last Quarter
May 9
New
May 17
First Quarter
May 24
Full

Hourly Weather History & Observations

Time (CDT) Temp. Dew Point Humidity Pressure Visibility Wind Dir Wind Speed Gust Speed Precip Events Conditions
12:53 AM 70.0 °F 66.9 °F 90% 29.91 in 8.0 mi SE 3.5 mph - N/A   Partly Cloudy
1:53 AM 70.0 °F 66.9 °F 90% 29.90 in 7.0 mi ESE 3.5 mph - N/A   Scattered Clouds
2:53 AM 69.1 °F 66.9 °F 93% 29.89 in 7.0 mi Calm Calm - N/A Fog Shallow Fog
3:53 AM 66.9 °F 64.9 °F 93% 29.89 in 6.0 mi Calm Calm - N/A Fog Shallow Fog
4:53 AM 66.9 °F 64.9 °F 93% 29.88 in 4.0 mi Calm Calm - N/A Fog Shallow Fog
5:46 AM 69.8 °F 66.2 °F 88% 29.88 in 3.0 mi East 4.6 mph - N/A Fog Shallow Fog
5:53 AM 69.1 °F 66.9 °F 93% 29.89 in 3.0 mi East 4.6 mph - N/A Fog Shallow Fog
6:19 AM 69.8 °F 66.2 °F 88% 29.88 in 4.0 mi East 5.8 mph - N/A Fog Shallow Fog
6:30 AM 69.8 °F 66.2 °F 88% 29.89 in 2.0 mi ENE 5.8 mph - N/A Fog Shallow Fog
6:50 AM 69.8 °F 68.0 °F 94% 29.89 in 0.2 mi East 4.6 mph - N/A Fog Shallow Fog
6:53 AM 69.1 °F 68.0 °F 96% 29.90 in 0.2 mi East 5.8 mph - N/A Fog Shallow Fog
7:20 AM 69.8 °F 68.0 °F 94% 29.88 in 1.0 mi East 4.6 mph - N/A Fog Shallow Fog
7:38 AM 71.6 °F 69.8 °F 94% 29.89 in 2.0 mi East 4.6 mph - N/A Fog Shallow Fog
7:53 AM 72.0 °F 69.1 °F 91% 29.91 in 2.0 mi East 6.9 mph - N/A Fog Shallow Fog
8:08 AM 73.4 °F 69.8 °F 88% 29.89 in 3.0 mi East 6.9 mph - N/A   Scattered Clouds
8:38 AM 73.4 °F 69.8 °F 88% 29.90 in 5.0 mi East 5.8 mph - N/A   Mostly Cloudy
8:53 AM 73.9 °F 69.1 °F 85% 29.91 in 5.0 mi East 5.8 mph - N/A   Haze
9:53 AM 75.9 °F 68.0 °F 76% 29.91 in 10.0 mi East 6.9 mph - N/A   Overcast
10:19 AM 75.2 °F 68.0 °F 78% 29.90 in 10.0 mi SE 11.5 mph - N/A   Overcast
10:53 AM 77.0 °F 68.0 °F 74% 29.92 in 10.0 mi SE 10.4 mph - N/A   Overcast
11:39 AM 75.2 °F 68.0 °F 78% 29.91 in 10.0 mi SE 11.5 mph - N/A   Overcast
11:53 AM 75.9 °F 68.0 °F 76% 29.91 in 10.0 mi ESE 10.4 mph - N/A   Overcast
12:07 PM 75.2 °F 68.0 °F 78% 29.90 in 10.0 mi SE 8.1 mph - N/A   Overcast
12:53 PM 75.9 °F 68.0 °F 76% 29.92 in 10.0 mi SSE 16.1 mph 32.2 mph N/A Thunderstorm Thunderstorm
1:07 PM 66.2 °F 62.6 °F 88% 29.91 in 1.2 mi South 13.8 mph 26.5 mph 0.07 in Rain , Thunderstorm Thunderstorms and Rain
1:18 PM 66.2 °F 64.4 °F 94% 29.92 in 1.5 mi South 12.7 mph - 0.37 in Rain , Thunderstorm Heavy Thunderstorms and Rain
1:40 PM 66.2 °F 64.4 °F 94% 29.90 in 5.0 mi South 9.2 mph - 0.42 in Rain , Thunderstorm Light Thunderstorms and Rain
1:53 PM 66.9 °F 64.0 °F 90% 29.92 in 6.0 mi SE 9.2 mph - 0.43 in Rain Light Rain
2:53 PM 68.0 °F 64.0 °F 87% 29.89 in 7.0 mi ESE 5.8 mph - 0.13 in Rain Light Rain
3:53 PM 70.0 °F 64.9 °F 84% 29.86 in 10.0 mi Calm Calm - 0.02 in Rain Light Rain
4:53 PM 71.1 °F 64.9 °F 81% 29.86 in 10.0 mi SSW 3.5 mph - 0.00 in   Overcast
5:53 PM 71.1 °F 64.9 °F 81% 29.85 in 10.0 mi ESE 4.6 mph - N/A   Overcast
6:53 PM 71.1 °F 64.0 °F 78% 29.87 in 10.0 mi East 5.8 mph - N/A   Overcast
7:53 PM 70.0 °F 64.9 °F 84% 29.88 in 10.0 mi East 8.1 mph - N/A   Mostly Cloudy
8:04 PM 69.8 °F 64.4 °F 83% 29.87 in 10.0 mi East 5.8 mph - N/A   Overcast
8:19 PM 69.8 °F 64.4 °F 83% 29.87 in 10.0 mi ENE 8.1 mph - N/A   Overcast
8:29 PM 69.8 °F 64.4 °F 83% 29.87 in 10.0 mi East 9.2 mph - N/A   Overcast
8:38 PM 69.8 °F 64.4 °F 83% 29.87 in 10.0 mi ENE 9.2 mph - N/A   Overcast
8:53 PM 70.0 °F 66.0 °F 87% 29.89 in 10.0 mi East 8.1 mph - N/A   Overcast
9:09 PM 69.8 °F 66.2 °F 88% 29.88 in 10.0 mi East 6.9 mph - N/A   Overcast
9:53 PM 70.0 °F 66.0 °F 87% 29.89 in 10.0 mi SE 6.9 mph - N/A   Mostly Cloudy
10:23 PM 69.8 °F 66.2 °F 88% 29.88 in 10.0 mi East 6.9 mph - N/A   Scattered Clouds
10:53 PM 70.0 °F 66.0 °F 87% 29.89 in 10.0 mi East 5.8 mph - N/A   Mostly Cloudy
11:53 PM 69.8 °F 66.2 °F 88% 29.88 in 10.0 mi East 4.6 mph - N/A   Scattered Clouds